Temperature
17 17 17 17 17 17 17 17 17 17 17 17 17 17 17 17 17 17 17 17 17 17 17 17 17 17 17 18 18 18 18 18 18 18 18 18 18 18 18 18 18 18 18
17 17 17 17 17 17 17 16 16 17 17 17 17 17 17 17 17 17 17 17 17 17 17 17 17 17 17 17 18 18 18 18 18 18 18 18 18 18 18 18 18 18 18
17 17 17 17 17 16 16 16 16 16 16 17 17 17 16 17 17 17 17 17 17 17 17 17 17 17 17 17 18 18 18 18 18 18 18 18 18 18 18 18 18 18 18
17 17 17 17 17 17 16 16 16 16 16 16 16 16 16 16 16 16 17 17 17 17 17 17 17 17 17 17 17 17 17 17 17 17 17 17 18 18 18 18 18 18 18
17 17 17 17 17 16 16 16 16 16 16 16 16 16 16 16 16 16 16 17 17 17 17 17 17 17 17 17 17 17 17 17 17 17 17 17 18 18 18 18 18 18 18
17 17 17 17 17 16 16 16 16 16 16 16 16 16 16 16 16 16 16 17 17 17 16 17 17 17 17 17 17 17 17 17 17 17 17 17 17 17 17 18 18 18 18
17 17 17 17 17 17 16 16 16 16 16 16 16 16 16 16 16 16 16 16 16 16 16 16 16 16 17 17 17 17 17 17 17 17 17 17 17 17 17 17 17 18 18
17 17 17 17 17 17 16 16 16 16 16 16 16 16 16 16 16 16 16 16 16 16 16 16 16 16 16 17 17 17 17 17 17 17 17 17 17 17 17 17 17 17 17
18 17 17 17 17 16 16 16 16 16 16 16 16 16 16 16 16 16 16 16 16 16 16 16 16 16 16 16 17 17 17 17 17 17 17 17 17 17 17 17 17 17 17
18 17 17 17 17 17 16 16 16 16 16 16 16 16 16 16 16 16 16 16 16 16 16 16 16 16 16 16 16 16 17 16 16 17 17 17 17 17 17 17 17 17 17
17 17 17 17 17 17 17 16 16 16 16 16 16 16 16 16 16 16 16 16 16 16 16 16 16 16 16 16 16 16 16 16 16 16 16 17 17 17 17 17 17 17 17
17 17 17 17 17 17 17 16 16 16 16 16 16 16 16 16 16 16 16 16 16 16 16 16 16 16 16 16 16 16 16 16 16 16 16 16 16 16 17 17 17 17 17
18 18 17 17 17 17 17 17 16 16 16 16 16 16 16 16 16 16 16 16 16 16 16 16 16 16 16 16 16 16 16 16 16 16 16 16 16 16 16 16 16 17 16
18 18 17 17 17 17 17 17 17 16 16 16 16 16 16 16 16 16 16 16 16 16 16 16 16 16 16 16 16 16 16 16 16 16 16 16 16 16 16 16 16 16 16
18 18 18 17 17 17 17 17 17 16 16 16 16 16 16 16 16 16 16 16 16 16 16 16 16 16 16 16 16 16 16 16 16 16 16 16 16 16 16 16 16 16 16
18 18 18 18 17 17 17 17 17 16 16 16 16 16 16 16 16 16 16 16 16 16 16 16 16 16 15 15 15 15 15 15 15 15 15 15 15 15 15 16 16 16 16
18 18 18 18 17 17 17 17 17 17 16 16 16 16 16 16 16 16 16 16 16 16 16 15 15 15 15 15 15 15 15 15 15 15 15 15 15 15 15 15 16 15 15
18 18 18 18 17 17 17 17 17 17 17 16 16 16 16 16 16 16 16 16 15 15 15 15 15 15 15 15 15 15 15 15 15 15 15 15 15 15 15 15 15 15 15
18 18 18 18 17 17 17 17 17 16 16 16 16 16 16 16 16 16 16 16 15 15 15 15 15 15 15 15 15 15 15 15 15 15 15 15 15 15 15 15 15 15 15
18 18 18 18 17 17 17 17 17 16 16 16 16 16 16 16 16 16 16 16 15 15 15 15 15 15 15 15 15 15 14 14 14 14 14 14 14 14 15 15 15 15 15
18 18 18 17 17 17 17 17 16 16 16 16 16 16 16 16 16 16 16 15 15 15 15 15 15 15 15 15 15 14 14 14 14 14 14 14 14 14 14 14 15 15 15
18 18 17 17 17 17 17 17 16 16 16 16 16 16 16 16 16 16 16 15 15 15 15 15 15 15 15 15 15 15 14 14 14 14 14 14 14 14 14 14 14 14 14
18 18 17 17 17 17 17 17 16 16 16 16 16 16 16 16 16 16 15 15 15 15 15 15 15 15 15 15 15 15 15 14 14 14 14 14 14 14 14 14 14 14 14
18 18 17 17 17 17 17 17 16 16 16 16 16 16 16 16 16 15 15 15 15 15 15 15 15 15 15 15 15 15 15 14 14 14 13 13 13 14 14 14 14 14 14
18 18 17 17 17 17 17 17 16 16 16 16 16 16 16 16 15 15 15 15 15 15 15 15 15 15 15 15 15 15 15 14 14 14 13 13 13 13 13 13 13 14 14
18 18 17 17 17 17 17 16 16 16 16 16 16 16 16 16 15 15 15 15 15 15 15 15 15 15 15 15 15 15 15 15 14 14 14 14 13 13 13 13 13 13 13
Wind_Speed
1 2 7 8 9 10 10 10 11 10 11 11 11 11 12 12 12 12 12 12 12 12 11 11 11 11 11 11 11 11 11 10 10 9 9 9 8 8 8 8 8 7 9
5 5 8 8 9 9 10 10 10 10 10 10 11 11 11 12 12 12 12 11 11 11 11 11 11 11 11 10 11 10 10 9 9 9 9 8 8 8 8 9 8 7 8
6 7 8 9 9 9 9 10 10 10 10 10 10 11 11 11 11 11 11 11 11 11 11 10 10 10 9 10 10 10 9 9 8 8 8 6 6 8 8 9 8 8 8
8 8 9 9 9 9 10 10 10 10 10 10 10 11 11 11 11 11 11 11 10 10 10 10 9 9 9 9 10 10 10 9 10 9 7 6 6 8 8 8 8 8 7
8 8 9 10 9 9 9 9 9 9 9 10 10 10 10 10 10 10 10 10 10 10 9 9 9 8 8 9 9 10 10 10 10 9 8 7 6 7 7 7 7 7 7
7 8 9 10 9 8 9 9 9 9 9 9 9 9 9 9 9 9 9 10 10 9 8 8 8 8 8 8 8 9 9 9 9 8 7 7 6 7 7 7 7 7 7
7 8 10 10 9 9 8 9 9 9 9 8 8 8 9 9 9 9 9 8 8 8 8 8 7 7 7 8 8 9 10 10 8 7 6 6 7 8 8 8 7 7 7
8 8 9 10 10 9 9 8 8 8 8 8 8 8 7 7 8 8 7 7 7 7 7 7 7 7 7 8 8 10 10 9 8 7 7 6 8 9 9 8 8 8 7
8 8 7 8 9 9 8 8 8 7 7 7 7 7 6 6 6 6 6 7 7 7 7 7 6 7 7 8 9 9 10 9 7 6 6 6 8 9 9 9 8 8 8
6 6 6 7 7 6 6 6 6 6 5 5 5 5 5 4 5 5 5 5 6 6 6 6 6 7 8 8 9 9 9 9 7 6 5 6 9 9 9 9 9 9 8
6 5 5 5 6 6 5 4 4 3 3 3 3 3 3 2 3 3 4 5 5 5 5 5 6 7 8 9 9 10 9 7 6 6 5 8 9 9 9 9 9 9 8
5 6 5 5 5 5 4 3 2 1 1 1 1 2 2 2 2 3 4 4 4 4 4 4 6 7 7 7 8 8 7 7 6 6 6 8 9 9 9 9 9 9 9
6 6 7 5 5 5 3 3 2 1 1 1 2 3 4 3 3 3 3 4 4 4 4 5 6 6 6 6 7 7 7 7 7 6 6 8 9 9 9 9 9 9 9
5 5 6 5 5 5 5 3 3 2 2 2 2 4 6 4 3 2 2 3 4 4 4 4 4 5 6 7 7 7 7 7 7 7 7 9 9 9 9 10 10 10 10
6 5 6 6 6 4 4 2 3 3 2 3 3 4 5 4 2 2 2 3 4 5 5 5 5 5 5 6 7 7 7 7 7 7 8 10 10 10 10 10 10 10 10
6 5 5 6 6 5 3 2 2 3 4 5 4 5 6 6 4 3 3 3 4 6 7 6 6 5 5 5 5 6 7 7 8 8 8 9 11 11 11 11 11 10 10
6 5 5 6 5 5 4 3 3 4 5 4 4 6 7 7 6 5 4 3 4 7 8 7 7 6 5 5 5 5 6 6 7 7 8 8 9 11 12 12 11 11 11
6 5 5 6 6 5 4 3 3 4 5 4 5 7 7 8 8 7 4 3 6 8 7 4 4 5 5 5 4 4 5 5 6 6 7 8 8 9 11 13 12 12 12
6 6 5 6 6 5 5 4 5 5 5 5 6 7 7 7 8 8 5 4 7 6 4 4 4 4 4 4 4 4 4 4 5 6 6 7 7 8 9 11 12 12 13
6 6 6 5 5 5 4 4 4 4 4 5 5 6 8 8 8 8 6 6 7 5 4 4 5 4 3 3 5 5 4 4 4 5 5 6 6 7 8 9 9 10 12
6 6 6 5 4 4 3 3 3 2 1 2 3 6 8 8 8 7 5 5 4 4 4 4 4 5 3 2 4 4 4 5 5 4 4 5 5 6 7 8 8 8 9
6 6 5 5 4 4 3 3 3 2 1 1 3 5 7 8 7 6 5 4 4 4 4 4 4 3 1 1 2 3 2 4 4 4 4 3 4 5 5 6 6 7 8
6 6 6 5 4 4 4 4 4 3 3 3 3 2 4 6 7 6 6 5 4 3 3 3 3 4 1 1 1 3 3 1 1 3 4 4 4 3 3 5 6 6 6
7 6 6 5 4 4 5 5 5 4 3 1 1 1 2 4 5 6 6 5 4 3 3 2 2 2 3 1 1 1 2 3 2 1 3 3 4 4 3 3 4 5 6
7 7 6 5 4 4 5 5 6 4 3 2 2 2 2 2 3 5 6 5 4 3 3 2 3 3 2 2 1 1 2 2 2 3 0 3 3 3 2 2 2 3 4
6 6 6 6 4 5 5 5 6 6 5 4 3 2 1 1 1 3 5 5 4 3 3 2 2 3 2 3 2 2 2 2 1 2 2 1 1 2 2 2 2 2 2
Wind_Direction
151 111 99 93 92 88 84 82 81 78 76 76 77 79 80 80 78 80 82 81 81 83 84 85 84 85 85 85 84 83 84 84 85 85 88 91 93 93 92 98 97 90 93
152 122 104 101 98 94 90 87 84 80 77 78 80 81 82 82 80 80 80 80 82 85 86 86 85 84 83 81 80 79 79 81 82 83 85 86 90 91 91 94 98 96 94
133 121 111 107 104 99 96 92 89 87 83 80 81 82 82 84 83 82 81 80 83 86 87 88 86 84 81 79 78 74 76 80 82 86 83 77 84 91 90 90 94 95 93
132 126 119 112 106 101 98 94 91 91 89 86 84 84 82 84 83 82 81 79 83 88 88 88 86 84 79 74 73 73 74 76 80 81 76 72 79 91 94 90 92 92 90
127 128 126 119 111 104 100 97 94 94 93 90 89 89 86 85 83 83 82 78 78 84 87 87 87 83 77 71 72 74 72 76 82 79 75 74 79 90 90 87 87 86 88
133 138 136 127 118 110 106 104 99 98 99 97 94 95 91 87 87 85 82 80 80 82 84 85 83 80 72 68 74 74 73 82 83 77 75 75 81 87 86 82 81 79 82
148 148 144 134 127 119 111 107 107 102 101 101 100 97 94 90 89 87 85 83 82 84 85 83 80 75 67 67 72 74 76 84 82 77 70 75 82 86 85 80 77 75 75
154 157 153 144 136 128 120 115 112 109 107 106 105 103 100 96 93 91 88 86 85 82 81 79 73 69 66 67 70 74 74 80 79 75 67 76 80 81 81 79 72 69 71
155 153 159 156 147 140 134 130 125 122 119 116 112 109 108 106 101 97 94 91 87 82 78 77 73 68 63 65 71 70 72 74 72 71 74 77 80 79 79 76 70 66 66
153 155 160 169 163 157 151 147 139 134 129 127 120 119 114 106 103 104 100 98 92 84 79 78 74 63 59 67 70 69 68 67 64 63 71 81 77 75 75 71 68 65 63
158 162 165 170 175 174 174 163 148 138 131 130 123 127 117 92 89 103 109 104 97 88 83 78 72 63 63 64 67 67 63 60 60 67 75 82 78 72 73 71 67 64 61
165 174 176 179 187 188 184 149 152 127 110 128 161 146 144 134 127 109 103 97 87 85 81 70 63 64 65 62 63 62 60 62 63 70 78 81 77 72 72 71 68 64 60
166 163 167 169 171 169 153 136 136 111 79 84 131 145 136 130 111 92 77 65 59 65 59 53 52 55 66 73 71 68 65 68 66 67 73 74 72 71 71 70 67 62 58
132 140 151 151 140 141 132 126 127 109 77 69 104 120 118 113 106 108 91 69 64 69 70 63 64 66 74 80 81 75 71 73 68 65 68 67 66 67 68 67 67 64 61
128 129 135 139 133 129 114 109 97 87 77 88 99 113 123 116 112 106 97 87 82 84 87 81 77 77 75 72 77 81 78 75 70 65 64 65 62 61 61 64 66 66 63
134 135 135 127 126 119 112 107 102 98 83 77 80 93 115 115 112 102 97 88 82 85 89 87 85 79 72 73 70 77 78 78 74 70 65 61 61 58 57 64 64 63 63
143 135 131 127 115 112 109 103 97 94 86 81 76 83 100 105 106 102 91 82 85 91 90 86 76 74 71 67 60 63 72 73 78 73 69 64 58 55 55 62 64 61 60
142 128 124 130 117 108 100 92 82 79 79 77 76 78 89 96 103 98 91 86 94 96 93 88 80 76 68 65 63 55 57 64 68 70 69 64 59 54 55 60 63 60 58
145 131 118 119 117 110 100 91 79 74 69 73 77 73 82 92 99 99 95 95 99 91 84 93 78 87 82 71 70 60 46 48 55 65 62 62 61 58 57 58 60 59 58
136 127 123 118 113 106 93 79 67 57 53 68 73 75 85 89 95 98 95 92 95 85 76 83 86 74 81 82 79 62 42 36 47 49 51 58 60 61 61 57 55 50 51
131 123 127 126 124 114 102 95 90 78 56 56 67 78 85 89 94 99 98 93 91 95 99 102 96 82 73 82 77 54 29 31 38 33 41 47 47 55 65 60 58 52 47
145 136 135 142 136 129 126 127 126 124 100 77 59 63 76 83 89 104 106 106 102 100 91 93 102 98 74 84 107 94 43 13 13 21 23 36 35 46 55 58 59 58 53
152 156 154 154 147 138 126 106 86 69 51 46 47 43 52 80 85 97 107 108 104 109 116 112 119 122 120 14 97 134 132 178 330 352 10 17 18 29 35 49 57 56 56
166 159 151 153 155 147 132 126 126 129 131 165 148 98 58 75 84 93 102 111 110 109 120 123 114 115 125 84 16 51 137 152 144 12 344 352 9 22 12 39 46 50 53
165 158 157 150 153 156 148 147 140 137 147 141 105 93 67 54 77 90 101 108 108 104 112 101 93 88 105 120 107 76 72 69 96 131 279 332 352 348 350 8 28 36 45
159 154 152 148 154 156 150 149 150 149 148 133 126 137 110 49 45 78 101 106 110 107 110 115 111 103 97 95 93 94 117 119 138 132 153 240 310 314 330 355 11 14 24
Height
1543 1542 1542 1541 1540 1539 1538 1538 1538 1537 1537 1537 1536 1536 1536 1535 1535 1535 1535 1535 1535 1535 1535 1535 1535 1535 1535 1535 1535 1535 1535 1535 1535 1535 1535 1535 1535 1535 1535 1535 1535 1535 1535
1543 1543 1542 1541 1540 1540 1539 1539 1538 1538 1538 1537 1537 1537 1537 1536 1536 1536 1536 1536 1535 1536 1536 1536 1536 1536 1536 1536 1536 1536 1536 1536 1536 1536 1536 1536 1536 1536 1536 1536 1536 1535 1536
1543 1543 1542 1541 1541 1540 1540 1540 1539 1539 1538 1538 1538 1538 1538 1537 1537 1537 1537 1537 1536 1537 1537 1537 1537 1537 1537 1537 1537 1537 1537 1537 1537 1537 1537 1536 1536 1536 1536 1536 1536 1536 1536
1544 1543 1543 1542 1542 1541 1541 1541 1540 1540 1539 1539 1539 1539 1538 1538 1538 1538 1538 1538 1537 1537 1537 1538 1538 1538 1538 1538 1538 1538 1538 1538 1538 1537 1537 1537 1537 1537 1537 1537 1537 1537 1537
1545 1544 1544 1543 1543 1542 1542 1541 1541 1541 1540 1540 1540 1539 1539 1539 1539 1539 1539 1538 1539 1538 1538 1539 1539 1539 1539 1539 1539 1539 1539 1538 1538 1538 1538 1538 1538 1538 1538 1538 1538 1537 1537
1546 1546 1545 1544 1544 1543 1543 1542 1542 1542 1541 1541 1541 1540 1540 1540 1540 1540 1540 1539 1539 1539 1539 1540 1540 1540 1540 1540 1540 1540 1539 1539 1539 1539 1539 1539 1539 1539 1539 1538 1538 1538 1537
1547 1547 1546 1546 1545 1545 1544 1543 1543 1543 1543 1542 1542 1542 1541 1541 1541 1541 1541 1541 1541 1541 1540 1541 1541 1541 1541 1541 1541 1541 1540 1540 1540 1540 1540 1540 1540 1539 1539 1539 1539 1538 1538
1548 1548 1547 1547 1547 1546 1546 1545 1545 1544 1544 1544 1544 1543 1543 1542 1542 1542 1542 1542 1542 1542 1542 1542 1542 1542 1542 1542 1542 1542 1541 1541 1541 1541 1541 1541 1540 1540 1540 1540 1539 1539 1539
1549 1549 1549 1549 1548 1548 1548 1547 1547 1546 1546 1546 1545 1545 1544 1544 1544 1543 1543 1543 1543 1543 1543 1543 1543 1543 1543 1543 1543 1543 1543 1543 1542 1542 1542 1542 1541 1541 1540 1540 1540 1539 1539
1550 1550 1550 1550 1550 1549 1549 1549 1549 1548 1548 1547 1547 1546 1546 1546 1545 1545 1545 1544 1544 1544 1544 1544 1544 1544 1544 1544 1544 1544 1544 1544 1543 1543 1543 1543 1542 1541 1541 1541 1540 1540 1539
1551 1551 1551 1551 1551 1551 1550 1550 1550 1550 1549 1549 1548 1548 1548 1547 1547 1547 1546 1546 1546 1546 1546 1546 1546 1545 1545 1545 1545 1545 1545 1545 1545 1544 1544 1544 1543 1542 1541 1541 1540 1540 1540
1551 1551 1552 1552 1552 1552 1552 1552 1552 1551 1551 1550 1550 1550 1550 1549 1549 1549 1548 1548 1547 1547 1547 1547 1547 1547 1547 1547 1546 1546 1546 1546 1546 1545 1545 1545 1544 1543 1542 1541 1541 1541 1540
1551 1552 1552 1553 1553 1553 1553 1553 1553 1552 1552 1551 1551 1551 1551 1551 1551 1550 1550 1550 1549 1549 1548 1548 1548 1548 1548 1548 1548 1548 1547 1547 1547 1546 1546 1546 1545 1544 1543 1542 1541 1541 1541
1552 1552 1553 1553 1554 1554 1554 1554 1554 1553 1553 1553 1553 1552 1552 1552 1552 1552 1551 1551 1551 1550 1550 1550 1550 1549 1549 1549 1549 1549 1549 1548 1548 1547 1547 1546 1545 1545 1544 1543 1542 1542 1541
1552 1553 1553 1554 1554 1554 1554 1554 1555 1554 1554 1554 1554 1554 1554 1554 1553 1553 1553 1552 1552 1552 1551 1551 1551 1551 1550 1550 1550 1550 1550 1550 1549 1549 1548 1547 1546 1545 1544 1544 1543 1542 1542
1553 1553 1554 1554 1555 1555 1555 1555 1555 1555 1555 1555 1555 1555 1555 1555 1554 1554 1554 1554 1553 1553 1553 1552 1552 1552 1552 1552 1551 1551 1551 1551 1551 1550 1549 1549 1548 1547 1546 1545 1544 1543 1542
1553 1554 1554 1555 1555 1555 1556 1556 1556 1556 1556 1556 1556 1556 1556 1556 1556 1555 1555 1555 1555 1554 1554 1554 1553 1553 1553 1553 1552 1552 1552 1552 1552 1551 1551 1550 1549 1548 1547 1546 1545 1544 1543
1553 1554 1554 1555 1556 1556 1556 1557 1557 1557 1557 1557 1557 1557 1557 1557 1557 1557 1556 1556 1556 1556 1556 1555 1555 1554 1554 1554 1553 1554 1554 1554 1553 1553 1552 1551 1550 1549 1548 1547 1546 1545 1544
1553 1554 1554 1555 1556 1557 1557 1557 1558 1558 1558 1558 1558 1558 1558 1558 1558 1558 1558 1557 1557 1557 1557 1556 1556 1556 1555 1555 1555 1555 1555 1555 1555 1554 1553 1553 1552 1551 1550 1549 1548 1547 1545
1553 1554 1555 1556 1556 1557 1558 1558 1558 1558 1559 1559 1559 1559 1559 1559 1559 1559 1559 1558 1558 1558 1558 1557 1557 1557 1557 1556 1556 1557 1557 1557 1556 1556 1555 1554 1553 1552 1551 1550 1549 1548 1546
1553 1554 1555 1556 1556 1557 1558 1558 1558 1559 1559 1559 1560 1560 1560 1560 1560 1560 1560 1559 1559 1559 1559 1559 1559 1558 1558 1558 1558 1558 1559 1559 1558 1558 1557 1556 1555 1554 1552 1551 1550 1549 1548
1553 1554 1555 1556 1557 1557 1558 1558 1559 1559 1560 1560 1560 1560 1560 1560 1560 1561 1561 1560 1560 1560 1560 1560 1560 1559 1560 1560 1560 1559 1560 1561 1559 1559 1558 1557 1556 1555 1554 1553 1551 1550 1549
1552 1554 1555 1556 1557 1558 1558 1559 1559 1560 1560 1560 1561 1561 1561 1561 1561 1561 1561 1561 1561 1561 1561 1561 1561 1560 1560 1560 1560 1560 1560 1560 1560 1560 1559 1558 1557 1556 1555 1554 1553 1552 1550
1552 1553 1555 1556 1557 1558 1559 1559 1559 1560 1560 1561 1561 1561 1562 1562 1562 1562 1562 1562 1562 1562 1561 1561 1561 1561 1561 1561 1561 1560 1561 1560 1560 1560 1560 1559 1558 1557 1556 1555 1554 1553 1552
1551 1552 1554 1555 1556 1557 1558 1559 1560 1560 1560 1561 1562 1562 1562 1562 1563 1563 1562 1562 1562 1562 1562 1562 1562 1562 1562 1561 1561 1561 1560 1560 1560 1560 1560 1560 1559 1558 1557 1556 1555 1554 1553
1550 1552 1553 1555 1556 1557 1558 1559 1560 1560 1561 1561 1562 1562 1562 1563 1563 1563 1563 1563 1563 1563 1563 1563 1562 1562 1562 1562 1561 1561 1561 1560 1560 1560 1560 1559 1559 1559 1558 1557 1556 1555 1554